Location: Sungai Anya
(2.6167°N, 114.0500°E)
Time: 19:12:57
(UTC+00:00)

Cosmos 1455 - Pass Details

Date: 19 October 2021
Orbit: 496 x 519 km, 82.5° (Epoch: 08 December)

Event Time Altitude Azimuth Distance (km) Brightness Sun altitude
Rises 11:07:10 0° 160° (SSE) 2,639 5.7 -14.8°
Reaches altitude 10° 11:09:42 10° 143° (SE) 1,750 4.6 -15.5°
Enters shadow 11:10:23 13° 136° (SE) 1,553 4.3 -15.6°
